Location: Knowlton
(51.2333°N, 1.2667°E)
Time: 04:28:09
(UTC+00:00)

ZACube-1 - Pass Details

Date: 03 December 2021
Orbit: 582 x 665 km, 97.6° (Epoch: 25 January)

Event Time Altitude Azimuth Distance (km) Brightness Sun altitude
Rises 16:50:48 0° 220° (SW) 2,857 ? -9.1°
Reaches altitude 10° 16:54:20 10° 252° (WSW) 1,981 ? -9.7°
Maximum altitude 16:56:01 12° 275° (W) 1,861 ? -9.9°
Drops below altitude 10° 16:57:44 10° 298° (WNW) 2,008 ? -10.1°
Sets 17:01:23 0° 330° (NNW) 2,946 ? -10.7°
